Clinton-Sherman, OK

11:37 PM CST on December 12, 2017 (GMT -0600)
Clinton-Sherman

Weather History for KCSM - September, 2012

Change the Weather History Date:

Friday, September 21, 2012

  Actual Average Record
Temperature  
Mean Temperature 78 °F -  
Max Temperature 95 °F 81 °F 99 °F (1998)
Min Temperature 64 °F 57 °F 48 °F (1999)
Cooling Degree Days 14    
Growing Degree Days 28 (Base 50)    
Moisture  
Dew Point 50 °F    
Average Humidity 38    
Maximum Humidity 56    
Minimum Humidity 20    
Precipitation  
Precipitation 0.00 in - - ()
Sea Level Pressure  
Sea Level Pressure 29.91 in    
Wind  
Wind Speed 10 mph (WSW)    
Max Wind Speed 18 mph    
Max Gust Speed -    
Visibility 10 miles    
Events      
Averages and records for this station are not official NWS values.
T = Trace of Precipitation, MM = Missing Value Source: NWS Daily Summary

Daily Weather History Graph

Daily Weather History Graph

Search for Another Location

Airport or City:

Trip Planner

Search our weather history database for the weather conditions in past years. The results will help you decide how hot, cold, wet, or windy it might be!

Date:

Astronomy

Sep. 21, 2012 Rise Set
Actual Time 7:24 AM CDT 7:34 PM CDT
Civil Twilight 6:59 AM CDT 7:59 PM CDT
Nautical Twilight 6:29 AM CDT 8:29 PM CDT
Astronomical Twilight 5:59 AM CDT 8:59 PM CDT
Moon 1:34 PM CDT (9/21) 11:50 PM CDT (9/21)
Length of Visible Light 13h 00m
Length of Day
12h 09m
Waxing Crescent, 37% of the Moon is Illuminated
Sep 21
Waxing Crescent
Sep 22
First Quarter
Sep 29
Full
Oct 8
Last Quarter
Oct 15
New

Hourly Weather History & Observations

Time (CDT) Temp. Heat Index Dew Point Humidity Pressure Visibility Wind Dir Wind Speed Gust Speed Precip Events Conditions
12:53 AM 72.0 °F - 51.1 °F 48% 29.88 in 10.0 mi South 10.4 mph - N/A   Clear
1:53 AM 71.1 °F - 50.0 °F 47% 29.88 in 10.0 mi South 12.7 mph - N/A   Clear
2:53 AM 70.0 °F - 48.0 °F 46% 29.88 in 10.0 mi SSW 12.7 mph - N/A   Clear
3:53 AM 66.9 °F - 48.0 °F 51% 29.87 in 10.0 mi SSW 13.8 mph - N/A   Clear
4:53 AM 70.0 °F - 48.0 °F 46% 29.87 in 10.0 mi SW 11.5 mph - N/A   Clear
5:53 AM 66.9 °F - 48.9 °F 52% 29.88 in 10.0 mi SW 11.5 mph - N/A   Clear
6:53 AM 66.0 °F - 48.9 °F 54% 29.89 in 10.0 mi SW 10.4 mph - N/A   Clear
7:53 AM 64.9 °F - 48.9 °F 56% 29.92 in 10.0 mi WSW 6.9 mph - N/A   Clear
8:53 AM 70.0 °F - 50.0 °F 49% 29.92 in 10.0 mi WSW 9.2 mph - N/A   Clear
9:53 AM 80.1 °F - 52.0 °F 38% 29.93 in 9.0 mi West 10.4 mph - N/A   Clear
10:43 AM 84.2 °F - 50.0 °F 30% 30.00 in 5.0 mi West 18.4 mph - N/A   Haze
10:53 AM 86.0 °F - 50.0 °F 29% 29.93 in 9.0 mi WNW 18.4 mph - N/A   Clear
11:53 AM 89.1 °F - 50.0 °F 26% 29.93 in 10.0 mi WNW 11.5 mph - N/A   Clear
12:53 PM 91.0 °F - 48.9 °F 23% 29.92 in 10.0 mi NNW 3.5 mph - N/A   Clear
1:53 PM 91.9 °F - 50.0 °F 24% 29.91 in 10.0 mi Variable 4.6 mph - N/A   Clear
2:53 PM 93.0 °F - 48.9 °F 22% 29.88 in 10.0 mi Calm Calm - N/A   Clear
3:53 PM 93.0 °F - 48.0 °F 21% 29.88 in 10.0 mi Variable 3.5 mph - N/A   Clear
4:53 PM 93.9 °F - 48.0 °F 21% 29.86 in 10.0 mi ENE 3.5 mph - N/A   Clear
5:53 PM 93.9 °F - 46.9 °F 20% 29.87 in 10.0 mi Calm Calm - N/A   Clear
6:53 PM 87.1 °F 85.7 °F 55.9 °F 35% 29.88 in 10.0 mi NNE 3.5 mph - N/A   Clear
7:53 PM 82.9 °F 81.8 °F 53.1 °F 36% 29.91 in 10.0 mi ENE 8.1 mph - N/A   Clear
8:53 PM 78.1 °F - 53.1 °F 42% 29.92 in 10.0 mi ENE 8.1 mph - N/A   Clear
9:53 PM 73.9 °F - 54.0 °F 50% 29.94 in 10.0 mi NNE 4.6 mph - N/A   Clear
10:53 PM 75.9 °F - 52.0 °F 43% 29.94 in 10.0 mi East 8.1 mph - N/A   Clear
11:53 PM 73.9 °F - 52.0 °F 46% 29.94 in 10.0 mi East 6.9 mph - N/A   Clear